Hourly Data Report for October 30, 2014

All times are specified in Local Standard Time (LST). Add 1 hour to adjust for Daylight Saving Time where and when it is observed.

CHARLOTTETOWN A
PRINCE EDWARD ISLAND

46°17'21.000" N
63°07'09.000" W
48.50 m
8300301
71706
YYG

Download Data

Hourly Data (October 2014)
Hourly Data Report for October 30, 2014
Temp Definition
°C
Dew Point Temp Definition
°C
Rel Hum Definition
%
Wind Dir Definition
10's deg

Wind Spd Definition
km/h
Visibility Definition
km
Stn Press Definition
kPa
Hmdx Definition


Wind Chill Definition


Weather Definition


TIME
00:00 Legend Double Dagger 14.1 13.5 96 18 11 12.9 99.84     LegendNANA
01:00 Legend Double Dagger 14.5 13.6 94 17 15 12.9 99.81     LegendNANA
02:00 Legend Double Dagger 14.5 14.0 97 25 11 8.1 99.82     Rain Showers,Fog
03:00 Legend Double Dagger 13.9 12.8 93 26 22 24.1 99.84     LegendNANA
04:00 Legend Double Dagger 13.5 12.6 94 25 19 24.1 99.88     LegendNANA
05:00 Legend Double Dagger 11.6 7.7 77 29 20 24.1 99.95     Cloudy
06:00 Legend Double Dagger 10.8 7.7 81 27 10 24.1 99.99     LegendNANA
07:00 Legend Double Dagger 10.3 7.6 83 26 13 24.1 100.07     LegendNANA
08:00 Legend Double Dagger 9.9 7.2 83 25 10 24.1 100.16     Mostly Cloudy
09:00 Legend Double Dagger 10.4 7.3 81 26 17 24.1 100.18     LegendNANA
10:00 Legend Double Dagger 10.6 5.6 71 28 19 24.1 100.20     LegendNANA
11:00 Legend Double Dagger 10.7 6.3 74 27 18 24.1 100.20     Mostly Cloudy
12:00 Legend Double Dagger 11.3 6.1 70 28 9 24.1 100.18     LegendNANA
13:00 Legend Double Dagger 11.5 5.6 67 29 17 24.1 100.20     LegendNANA
14:00 Legend Double Dagger 10.8 4.7 66 27 13 24.1 100.19     Mostly Cloudy
15:00 Legend Double Dagger 11.7 5.4 65 31 14 24.1 100.25     LegendNANA
16:00 Legend Double Dagger 10.4 4.1 65 27 16 24.1 100.32     LegendNANA
17:00 Legend Double Dagger 9.1 4.0 70 27 10 24.1 100.39     Mainly Clear
18:00 Legend Double Dagger 6.9 3.5 79 28 6 24.1 100.46     LegendNANA
19:00 Legend Double Dagger 6.6 4.3 85 30 6 24.1 100.49     LegendNANA
20:00 Legend Double Dagger 7.4 4.0 79 32 11 24.1 100.53     Mostly Cloudy
21:00 Legend Double Dagger 6.6 4.1 84 31 8 24.1 100.60     LegendNANA
22:00 Legend Double Dagger 6.9 3.2 77 32 7 24.1 100.61     LegendNANA
23:00 Legend Double Dagger 7.0 2.3 72 33 7 24.1 100.59     Mostly Cloudy

Notes on Data Quality.

Legend

  • E = Estimated
  • M = Missing
  • NA = Not Available
  • ‡ = Partner data that is not subject to review by the National Climate Archives
Date modified: